Precipitable_Water
0.39 0.42 0.45 0.53 0.63 0.58 0.50 0.45 0.35 0.37 0.40 0.62 0.66 0.66 0.63 0.68 0.96 1.21 1.23 1.32 1.13 1.21 1.30 1.33 1.42 1.34 1.48 1.58 1.63 1.71 1.66 1.72 1.80 1.79 1.65 1.59 1.63 1.76 1.80 1.87 1.86 1.79 1.75 1.68
0.35 0.40 0.54 0.63 0.61 0.51 0.44 0.40 0.34 0.40 0.56 0.59 0.68 0.64 0.74 0.68 0.71 0.92 1.16 1.31 1.43 1.59 1.53 1.62 1.47 1.38 1.33 1.32 1.48 1.56 1.60 1.69 1.72 1.76 1.73 1.65 1.74 1.84 1.85 1.90 1.92 1.90 1.92 1.90
0.31 0.42 0.48 0.50 0.41 0.32 0.30 0.31 0.34 0.39 0.50 0.59 0.52 0.51 0.60 0.76 0.84 0.83 0.88 1.01 1.15 1.31 1.17 1.25 1.46 1.52 1.49 1.49 1.43 1.40 1.46 1.54 1.67 1.72 1.71 1.64 1.72 1.82 1.87 1.88 1.91 1.98 1.98 1.97
0.35 0.49 0.50 0.44 0.30 0.25 0.25 0.37 0.39 0.36 0.34 0.30 0.53 0.33 0.56 0.61 0.76 0.90 1.06 1.09 1.08 1.09 1.05 1.10 1.26 1.55 1.72 1.65 1.71 1.72 1.73 1.58 1.54 1.61 1.55 1.55 1.57 1.57 1.77 1.87 1.95 2.00 2.03 2.07
0.32 0.37 0.38 0.36 0.25 0.23 0.26 0.33 0.32 0.32 0.30 0.34 0.41 0.40 0.48 0.67 0.64 0.80 1.03 1.16 1.25 1.18 1.06 1.13 1.41 1.56 1.66 1.89 1.88 1.82 1.82 1.89 1.81 1.75 1.63 1.56 1.58 1.66 1.74 1.88 1.99 2.06 2.12 2.09
0.24 0.30 0.30 0.33 0.36 0.28 0.27 0.26 0.25 0.34 0.37 0.33 0.45 0.43 0.48 0.56 0.81 0.94 1.18 1.19 1.27 1.36 1.27 1.32 1.56 1.43 1.43 1.66 1.92 1.94 1.79 1.84 1.92 1.91 1.86 1.73 1.58 1.66 1.67 1.78 1.88 1.92 2.00 2.08
0.21 0.23 0.25 0.23 0.21 0.22 0.24 0.24 0.23 0.28 0.38 0.48 0.62 0.56 0.56 0.83 0.95 1.03 1.13 1.14 1.28 1.43 1.46 1.56 1.61 1.63 1.43 1.12 1.70 2.06 1.88 1.81 1.95 1.94 1.95 1.90 1.85 1.75 1.71 1.77 1.77 1.72 1.75 1.88
0.17 0.18 0.24 0.26 0.21 0.15 0.22 0.27 0.26 0.29 0.38 0.48 0.73 0.59 0.73 1.06 1.18 1.19 1.24 1.23 1.24 1.32 1.43 1.51 1.71 1.85 1.93 1.88 1.92 1.94 2.02 1.97 2.04 1.99 1.99 2.00 2.00 1.96 1.95 1.87 1.81 1.79 1.77 1.74
0.19 0.24 0.36 0.26 0.26 0.26 0.27 0.30 0.53 0.50 0.53 0.59 0.73 0.88 0.99 1.14 1.17 1.11 1.06 1.06 1.04 1.09 1.17 1.26 1.45 1.54 1.72 1.78 1.82 1.83 1.87 1.92 1.93 1.94 1.95 2.03 2.06 2.04 2.08 2.10 2.03 1.98 1.96 1.86
0.25 0.27 0.45 0.41 0.50 0.45 0.35 0.45 0.40 0.50 0.38 0.48 0.61 0.60 0.58 0.93 0.91 1.09 1.08 0.97 0.99 1.03 1.03 1.03 1.11 1.25 1.45 1.52 1.62 1.70 1.76 1.78 1.76 1.85 1.88 1.92 1.97 2.05 2.08 2.10 2.09 2.09 2.01 1.94
0.27 0.31 0.45 0.55 0.50 0.46 0.41 0.38 0.44 0.50 0.50 0.37 0.41 0.53 0.82 0.77 0.93 1.00 1.05 0.96 0.91 0.96 1.00 0.97 0.97 1.02 1.05 1.18 1.27 1.38 1.48 1.56 1.57 1.59 1.69 1.79 1.84 1.91 1.96 2.03 2.08 2.09 2.12 2.06
0.29 0.31 0.33 0.47 0.65 0.66 0.68 0.61 0.55 0.45 0.42 0.52 0.58 0.60 0.89 0.87 0.85 1.08 1.05 1.02 0.98 0.96 0.95 0.96 0.91 0.83 0.78 0.78 0.78 0.80 0.87 0.89 1.08 1.22 1.28 1.34 1.48 1.62 1.66 1.74 1.89 2.10 2.19 2.15
0.42 0.33 0.29 0.30 0.52 0.62 0.67 0.70 0.66 0.70 0.60 0.61 0.58 0.62 0.95 0.95 0.98 1.11 1.00 0.98 0.93 0.90 0.82 0.76 0.71 0.66 0.68 0.68 0.70 0.72 0.75 0.78 0.85 0.91 0.95 1.06 1.18 1.26 1.41 1.55 1.61 1.71 1.83 2.00
0.49 0.37 0.42 0.37 0.48 0.58 0.54 0.59 0.62 0.64 0.57 0.62 0.76 0.71 0.78 0.84 0.87 0.93 0.93 0.92 0.86 0.85 0.75 0.71 0.66 0.67 0.68 0.64 0.63 0.65 0.67 0.73 0.76 0.78 0.79 0.83 0.95 1.06 1.17 1.32 1.44 1.52 1.60 1.64
0.50 0.38 0.46 0.55 0.59 0.59 0.54 0.53 0.62 0.63 0.65 0.67 0.74 0.72 0.75 0.85 0.91 0.90 0.94 0.89 0.80 0.73 0.64 0.61 0.62 0.64 0.59 0.66 0.72 0.78 0.82 0.85 0.86 0.83 0.86 0.85 0.87 0.94 1.05 1.17 1.27 1.37 1.48 1.59
0.61 0.41 0.46 0.55 0.62 0.62 0.51 0.54 0.63 0.65 0.68 0.81 0.75 0.79 0.92 1.05 1.13 0.98 0.90 0.82 0.78 0.65 0.60 0.59 0.58 0.57 0.65 0.63 0.63 0.67 0.70 0.73 0.81 0.83 0.90 0.97 0.97 1.01 1.03 1.09 1.16 1.20 1.29 1.39
0.67 0.53 0.54 0.60 0.71 0.68 0.50 0.64 0.67 0.71 0.73 0.85 0.68 0.82 0.92 0.86 0.88 0.82 0.81 0.81 0.76 0.64 0.56 0.60 0.60 0.62 0.62 0.60 0.63 0.63 0.67 0.71 0.67 0.69 0.79 0.92 0.97 0.98 1.03 1.12 1.20 1.24 1.23 1.31
0.64 0.50 0.49 0.51 0.59 0.39 0.50 0.71 0.73 0.75 0.69 0.70 0.72 0.74 0.76 0.74 0.77 0.80 0.80 0.75 0.65 0.60 0.67 0.67 0.61 0.55 0.57 0.64 0.64 0.65 0.68 0.67 0.66 0.64 0.72 0.79 0.82 0.83 0.90 0.99 1.08 1.16 1.22 1.26
0.63 0.55 0.45 0.38 0.40 0.43 0.45 0.63 0.64 0.59 0.53 0.62 0.69 0.73 0.78 0.79 0.76 0.69 0.70 0.68 0.68 0.69 0.67 0.60 0.56 0.55 0.62 0.62 0.64 0.65 0.66 0.67 0.67 0.70 0.72 0.75 0.79 0.78 0.80 0.82 0.90 1.02 1.12 1.15
0.73 0.67 0.50 0.42 0.37 0.34 0.42 0.55 0.63 0.65 0.49 0.62 0.63 0.67 0.67 0.63 0.48 0.55 0.66 0.70 0.68 0.65 0.61 0.58 0.58 0.58 0.56 0.58 0.64 0.64 0.65 0.68 0.69 0.75 0.79 0.82 0.85 0.84 0.84 0.87 0.86 0.89 0.99 1.10
0.57 0.58 0.52 0.45 0.36 0.42 0.57 0.57 0.62 0.45 0.54 0.72 0.72 0.71 0.65 0.59 0.61 0.61 0.67 0.67 0.65 0.61 0.61 0.62 0.58 0.55 0.57 0.61 0.64 0.63 0.68 0.72 0.80 0.85 0.88 0.88 0.89 0.89 0.92 0.93 0.95 0.96 0.97 0.94
0.45 0.42 0.43 0.45 0.38 0.36 0.73 0.66 0.58 0.70 0.79 0.78 0.74 0.72 0.63 0.56 0.55 0.57 0.61 0.60 0.58 0.58 0.59 0.59 0.54 0.53 0.57 0.62 0.63 0.63 0.66 0.77 0.85 0.89 0.89 0.88 0.90 0.93 0.97 0.98 1.00 1.02 1.02 1.01
0.40 0.48 0.47 0.55 0.58 0.76 0.80 0.77 0.86 0.85 0.78 0.75 0.68 0.65 0.53 0.45 0.49 0.55 0.57 0.56 0.56 0.58 0.57 0.57 0.54 0.52 0.58 0.62 0.66 0.64 0.72 0.80 0.83 0.87 0.90 0.91 0.94 0.95 0.98 0.98 1.01 1.06 1.10 1.05
0.62 0.65 0.56 0.60 0.69 0.72 0.78 0.82 0.82 0.85 0.77 0.74 0.69 0.58 0.51 0.48 0.53 0.55 0.55 0.53 0.55 0.56 0.53 0.54 0.53 0.47 0.51 0.58 0.62 0.66 0.74 0.81 0.83 0.86 0.91 0.95 0.94 0.94 0.99 1.04 1.11 1.16 1.15 1.14
0.63 0.70 0.63 0.61 0.72 0.74 0.74 0.75 0.76 0.78 0.76 0.68 0.58 0.54 0.52 0.54 0.54 0.53 0.48 0.51 0.53 0.53 0.54 0.54 0.50 0.49 0.49 0.55 0.60 0.66 0.72 0.78 0.79 0.87 0.92 0.93 0.96 0.98 1.00 1.06 1.13 1.19 1.27 1.30
0.62 0.57 0.55 0.61 0.76 0.72 0.72 0.78 0.78 0.73 0.71 0.70 0.60 0.53 0.55 0.55 0.48 0.45 0.46 0.50 0.50 0.48 0.49 0.51 0.53 0.52 0.49 0.54 0.62 0.69 0.74 0.78 0.80 0.82 0.88 0.92 0.95 1.00 1.03 1.06 1.14 1.31 1.35 1.37
Wind_Speed
11 10 8 8 4 3 7 6 3 4 2 3 4 7 9 9 6 3 12 10 7 7 8 8 8 8 9 9 9 9 7 9 10 11 10 8 6 6 5 5 6 6 5 4
10 11 11 8 5 5 7 6 7 5 5 3 3 6 9 8 10 6 5 3 5 2 7 3 5 9 9 9 7 7 7 8 8 10 11 9 8 8 7 6 6 7 7 6
13 12 10 6 4 6 7 4 5 6 1 2 2 7 8 10 10 9 10 7 2 5 6 3 5 5 7 7 7 7 6 6 5 6 9 10 11 10 10 9 9 9 10 9
13 12 13 9 6 7 8 7 6 6 7 10 9 9 9 10 6 3 7 6 2 6 7 4 8 5 6 6 5 4 4 4 3 3 4 7 10 11 10 11 11 11 12 11
12 11 9 8 9 10 11 8 7 9 9 6 7 4 9 7 6 3 4 4 6 5 5 4 4 3 8 5 7 4 3 3 3 2 3 3 6 9 12 11 12 12 12 13
14 11 10 10 10 10 11 10 11 8 8 8 11 8 10 6 5 3 2 2 5 6 3 5 6 5 3 7 6 6 6 6 5 4 5 6 6 6 8 10 12 14 14 15
10 11 8 10 10 10 11 7 7 7 5 9 8 4 10 11 8 4 1 3 3 5 5 7 3 1 1 3 12 11 8 8 8 8 8 8 9 10 9 10 11 12 14 15
9 8 12 10 9 10 10 10 8 7 9 6 5 8 6 4 6 3 3 2 3 1 2 3 2 2 5 4 2 4 7 8 9 10 11 11 12 12 13 13 14 15 14 15
8 11 10 11 10 9 9 9 7 5 7 2 5 0 5 6 2 2 4 2 1 0 2 4 5 5 5 4 4 4 5 7 9 10 11 13 15 16 17 17 17 16 16 17
12 7 6 6 9 11 11 9 7 7 5 4 7 8 9 8 4 8 6 4 1 2 3 5 6 6 6 7 7 9 9 10 12 13 14 15 16 18 19 20 21 21 20 19
13 9 7 5 8 8 9 8 7 5 6 7 7 10 11 12 14 11 8 4 2 4 6 7 9 10 11 11 12 12 13 14 15 16 17 18 19 21 21 22 22 23 23 22
14 11 6 11 2 2 3 1 4 4 7 7 7 10 8 7 12 10 8 5 4 6 8 10 11 13 13 13 14 15 16 16 17 18 18 18 19 20 21 23 24 24 23 24
8 10 11 10 8 6 7 7 5 7 7 7 7 7 3 5 7 7 9 6 6 8 11 12 11 11 13 14 15 16 17 17 18 19 19 20 20 21 21 22 23 25 27 26
9 9 8 10 10 9 13 13 10 9 10 10 11 13 5 8 11 9 7 6 7 9 9 8 10 12 14 15 17 19 20 21 22 22 22 23 23 23 23 23 24 24 26 28
12 11 10 7 8 11 13 16 16 13 8 13 17 16 12 12 12 12 7 6 7 9 9 11 13 16 17 18 19 20 20 22 23 24 24 25 26 26 26 25 25 26 25 25
10 11 10 10 8 10 15 14 13 16 15 7 9 5 4 6 9 9 8 7 8 10 12 15 16 18 18 19 20 22 22 23 24 25 25 25 25 26 26 27 27 27 27 27
10 8 7 9 9 8 9 9 9 7 14 14 7 8 7 7 9 9 8 9 10 13 14 15 16 18 20 21 21 22 23 24 24 25 24 24 24 25 26 27 28 27 27 27
11 9 11 10 9 11 12 11 11 8 1 3 6 7 7 5 6 8 9 11 13 13 14 16 19 19 20 21 22 24 25 26 26 26 25 25 26 26 26 27 27 28 28 27
14 14 11 9 12 14 10 7 12 8 7 6 7 6 6 5 6 9 11 12 12 13 15 17 18 20 20 22 23 25 27 27 27 26 26 27 27 27 28 28 28 29 29 28
11 8 9 11 14 14 13 10 9 7 7 7 7 8 9 8 10 12 10 11 12 14 16 18 20 20 21 23 25 26 27 27 26 26 26 26 26 27 28 28 29 29 30 30
8 9 11 11 12 11 11 10 10 11 11 6 5 6 8 10 11 12 11 12 14 16 17 17 18 19 21 23 25 25 25 25 26 26 26 26 26 27 27 28 28 28 28 29
10 13 12 11 10 10 10 8 9 10 7 7 7 8 9 10 11 11 13 14 15 15 16 17 19 20 22 23 24 25 25 26 26 26 26 26 26 26 26 27 27 26 26 26
12 11 10 8 9 8 6 7 7 8 8 9 10 11 11 11 12 13 13 14 14 15 17 18 19 21 22 23 24 25 26 26 26 26 26 25 25 25 25 24 24 23 23 23
9 8 8 7 10 9 8 7 7 7 8 9 10 11 11 11 12 13 14 14 15 17 18 19 20 22 23 23 25 25 26 26 25 25 24 24 24 24 24 23 22 21 20 20
10 8 9 8 8 8 10 10 10 9 10 10 10 11 12 13 13 14 14 15 16 17 18 19 20 21 22 23 24 25 25 25 25 24 23 22 22 22 21 20 20 20 19 18
11 10 11 9 8 8 9 9 9 9 10 11 11 12 13 13 13 14 15 16 17 19 19 19 20 20 21 22 23 23 24 23 24 23 22 22 21 21 20 19 19 18 18 17
Wind_Direction
205 201 221 245 210 237 220 244 247 216 208 43 29 9 348 321 350 224 243 236 182 181 168 152 127 134 143 154 158 162 167 188 199 201 200 206 213 219 226 231 228 231 230 243
206 210 227 262 233 250 247 241 257 189 109 67 38 355 347 336 307 310 281 356 273 276 153 146 146 127 132 135 142 162 173 176 192 205 215 221 227 235 239 241 240 231 237 251
203 218 235 240 259 234 225 232 272 187 89 265 348 316 318 332 318 315 324 321 15 86 51 263 204 159 142 137 131 129 143 170 190 210 223 231 239 245 243 244 248 244 248 258
217 234 249 227 237 239 247 285 246 245 264 271 259 275 290 328 331 311 337 345 177 187 206 251 202 194 209 192 176 152 133 147 158 191 223 235 241 243 245 249 256 254 254 257
224 231 247 226 236 234 242 284 289 282 280 260 288 277 270 314 325 301 322 354 6 247 215 228 167 234 217 217 211 203 203 218 214 233 251 260 256 252 251 258 261 263 262 258
232 247 239 240 239 243 260 278 286 284 274 286 266 252 267 268 258 255 7 352 18 41 224 221 185 240 281 234 250 232 239 247 256 265 271 266 269 270 264 264 268 266 264 262
235 239 242 242 263 259 243 258 275 302 299 301 313 246 244 229 245 244 196 64 61 60 53 110 126 98 163 261 254 229 245 259 263 270 276 277 272 267 272 272 271 273 269 267
212 246 242 241 234 240 248 238 253 267 290 276 279 241 220 270 255 172 176 168 99 76 18 46 8 45 38 37 13 230 255 269 270 275 277 278 275 273 275 275 276 274 274 271
233 278 265 220 229 228 268 255 272 274 299 256 267 287 239 286 288 256 185 183 176 318 353 360 4 346 329 333 336 326 289 280 288 298 293 284 280 276 275 274 276 275 274 273
239 266 245 232 256 262 250 261 295 289 283 261 263 270 262 253 223 242 240 191 206 302 323 337 342 342 328 321 309 301 297 298 299 296 295 290 288 283 278 276 274 271 271 272
232 238 253 243 257 275 262 253 272 260 279 267 263 281 252 255 253 214 226 195 239 303 307 308 310 315 316 313 312 307 303 301 302 301 296 291 287 284 282 278 275 270 268 270
229 239 235 239 240 138 62 267 272 269 271 283 274 282 268 258 191 194 220 210 267 295 304 304 307 309 309 310 310 309 310 308 306 302 301 299 293 289 284 279 275 272 270 266
240 244 252 264 264 269 251 278 273 272 269 294 298 296 182 201 193 219 207 236 272 286 299 298 305 308 313 312 311 310 309 307 305 304 301 299 297 295 289 284 282 275 271 269
236 242 230 237 239 266 272 272 272 272 274 296 265 278 257 216 222 244 212 241 271 293 300 304 307 310 312 311 309 307 306 304 302 299 298 296 295 294 292 289 285 282 276 272
240 246 238 251 268 272 279 282 271 262 265 248 243 249 244 224 217 228 224 258 286 300 299 303 306 308 309 309 309 310 309 306 303 301 299 295 292 291 290 289 286 283 280 276
261 240 233 249 267 298 303 290 286 260 261 305 187 241 217 224 223 222 249 264 284 296 299 303 306 307 307 308 309 310 309 308 307 303 299 298 296 292 290 289 288 283 279 276
254 241 235 243 259 291 297 292 268 279 263 240 232 232 225 232 242 249 260 275 283 293 299 304 307 306 307 307 309 311 311 309 308 305 302 299 298 295 293 290 288 285 281 277
244 246 259 248 248 277 280 255 237 230 265 208 209 220 226 225 246 260 274 276 286 291 298 304 305 306 308 310 311 310 310 309 307 305 302 300 298 296 295 292 288 284 281 278
246 251 256 252 265 278 293 258 225 236 287 253 204 211 221 235 267 282 279 280 283 289 297 303 306 308 311 313 313 313 311 309 306 304 302 300 298 296 295 293 289 284 280 276
276 239 253 267 265 265 255 246 246 238 276 265 227 231 237 248 276 275 275 281 290 297 301 305 308 310 313 314 315 314 313 311 307 306 305 303 301 300 297 294 291 285 277 273
247 262 252 267 271 271 246 237 246 250 248 248 251 260 274 281 276 276 283 291 295 299 303 308 312 314 316 318 319 318 316 313 311 308 306 305 303 303 302 299 295 289 282 274
259 265 268 267 267 241 258 251 247 237 245 249 263 277 283 280 280 282 288 294 299 304 307 309 312 314 317 318 320 319 317 313 312 310 309 307 304 304 305 305 299 291 284 277
272 251 248 255 246 241 244 232 233 236 248 262 271 282 283 281 282 286 291 296 300 304 308 311 312 314 316 318 319 319 319 316 314 311 309 309 308 307 308 308 305 299 289 280
272 249 251 255 242 235 236 243 256 252 261 276 281 284 287 285 288 291 293 296 301 304 306 309 313 315 316 318 319 320 320 320 317 313 312 310 311 309 309 309 308 304 296 285
251 262 253 265 241 243 248 248 252 261 274 278 286 289 291 291 293 292 292 297 300 304 306 308 311 314 315 318 320 320 319 320 319 317 315 314 314 314 312 312 312 308 302 291
257 260 260 255 245 246 250 248 247 259 268 276 281 286 292 292 291 292 294 297 300 303 305 307 310 313 315 318 322 323 324 322 321 320 318 317 316 316 315 315 315 314 309 301